Location: Ammerl�gen
(47.2167°N, 9.6000°E)
Time: 06:34:53
(UTC+00:00)

RS-15 - Pass Details

Date: 11 December 2021
Orbit: 1882 x 2162 km, 64.8° (Epoch: 17 January)

Event Time Altitude Azimuth Distance (km) Brightness Sun altitude
Exits shadow 00:49:32 31° 60° (ENE) 3,167 9.2 -59.2°
Drops below altitude 10° 00:55:24 10° 42° (NE) 4,625 10.3 -58.5°
Sets 00:59:02 0° 38° (NE) 5,656 10.9 -58.0°
